Overview Statistics Trail Chart Weather Telemetry Raw packets
 

This is the latest recevied weather packets stored in our database for station/object HI3LT-13. If no packets are shown the sender has not sent any weather packets the latest 10 day(s).

<< 9 10 11 12 13 14 15 >>
Time Temp. Humidity Pressure Rain* Wind** Luminosity Snow
1788464270 35° C 55% 1013 hPa 0 mm - - -
1788463669 35° C 55% 1013 hPa 0 mm - - -
1788463068 35° C 55% 1013 hPa 0 mm - - -
1788462476 35.56° C 54% 1013 hPa 0 mm - - -
1788461867 35° C 57% 1013 hPa 0 mm - - -
1788461267 35° C 58% 1013 hPa 0 mm - - -
1788460666 35° C 59% 1013 hPa 0 mm - - -
1788460065 35° C 60% 1013 hPa 0 mm - - -
1788459464 35° C 60% 1013 hPa 0 mm - - -
1788458864 35.56° C 59% 1013 hPa 0 mm - - -
1788458263 35° C 61% 1013 hPa 0 mm - - -
1788457662 35° C 62% 1013 hPa 0 mm - - -
1788457062 35° C 63% 1014 hPa 0 mm - - -
1788456461 35.56° C 64% 1014 hPa 0 mm - - -
1788455861 35.56° C 66% 1014 hPa 0 mm - - -
1788455260 35.56° C 68% 1014 hPa 0 mm - - -
1788454659 35° C 65% 1014 hPa 0 mm - - -
1788454058 30° C 62% 1014 hPa 0 mm - - -
1788453458 33.33° C 67% 1014 hPa 0 mm - - -
1788452857 31.67° C 68% 1015 hPa 0 mm - - -
1788452257 33.89° C 72% 1015 hPa 0 mm - - -
1788451656 33.89° C 75% 1015 hPa 0 mm - - -
1788451056 33.33° C 73% 1015 hPa 0 mm - - -
1788450455 31.67° C 71% 1015 hPa 0 mm - - -
1788449854 31.67° C 73% 1015 hPa 0 mm - - -

* Rain latest hour (hover to see other rain measurements)
** Current wind speed in m/s (hover to see current wind gust speed)